Home   Weather   Aalen   Past weeks

Flag for Germany Past Weather in Aalen, Baden-Württemberg, Germany — Yesterday and Last 2 Weeks

Now
72 °F

Scattered clouds.


Feels Like: 76 °F
Forecast: 62 / 83 °F
Wind: 2 mph from Southeast

Location: Niederstetten

Current Time: Jul 21, 2017 at 11:21:18 am

Latest Report: Jul 21, 2017 at 10:20 am


Visibility: N/A

Pressure: 30.01 "Hg

Humidity: 57%

Dew Point: 55 °F

Location of AalenLocation

Past Weather in Aalen — Graph

°F

Aalen Temperature Yesterday

Maximum temperature yesterday: 73 °F (at 12:20 pm)
Minimum temperature yesterday: 63 °F (at 3:20 am)
Average temperature yesterday: 67 °F

High & Low Weather Summary for the Past Weeks

 TemperatureHumidityPressure
High90 °F (Jul 19, 5:20 pm)100% (Jul 7, 4:00 am)30.30 "Hg (Jul 7, 4:00 am)
Low48 °F (Jul 13, 4:20 am)29% (Jul 6, 5:00 pm)29.83 "Hg (Jul 10, 2:20 am)
Average67 °F70%30.03 "Hg
* Reported Jul 6 9:20 am — Jul 21 9:20 am, Aalen. Weather by CustomWeather, © 2017

Note: Actual official high and low records may vary slightly from our data, if they occured in-between our weather recording intervals... More about our weather records

Advertising

Aalen Weather History for the Previous 24 Hours

Scroll right to see more
 ConditionsComfort  
Time TempWeatherWind HumidityBarometerVisibility
9:20 am
Fri, Jul 21
70 °FScattered clouds.2 mph60%30.01 "HgN/A
8:20 am66 °FPassing clouds.1 mph73%30.01 "HgN/A
7:20 am64 °FScattered clouds.2 mph83%29.98 "HgN/A
6:20 am61 °FPartly sunny.1 mph94%29.98 "HgN/A
5:20 am61 °FPassing clouds.2 mph88%29.98 "HgN/A
4:20 am61 °FPassing clouds.5 mph88%29.98 "HgN/A
3:20 am63 °FPassing clouds.6 mph88%29.98 "HgN/A
2:20 am63 °FPassing clouds.7 mph88%29.98 "HgN/A
1:20 am63 °FPassing clouds.6 mph88%29.98 "HgN/A
12:20 am63 °FPassing clouds.5 mph88%29.98 "HgN/A
11:20 pm
Thu, Jul 20
64 °FPassing clouds.7 mph88%29.98 "HgN/A
10:20 pm64 °FPassing clouds.6 mph88%29.98 "HgN/A
9:20 pm66 °FPassing clouds.7 mph83%29.95 "HgN/A
8:20 pm70 °FScattered clouds.8 mph73%29.95 "HgN/A
7:20 pm70 °FPassing clouds.8 mph73%29.95 "HgN/A
6:20 pm70 °FPassing clouds.10 mph73%29.92 "HgN/A
5:20 pm72 °FScattered clouds.10 mph73%29.95 "HgN/A
4:20 pm68 °FPartly sunny.10 mph83%29.95 "HgN/A
3:20 pm68 °FPartly sunny.13 mph83%29.95 "HgN/A
1:20 pm64 °FLight rain. Broken clouds.13 mph94%29.95 "HgN/A
12:20 pm73 °FBroken clouds.13 mph61%29.92 "HgN/A
11:20 am72 °FBroken clouds.13 mph65%29.92 "HgN/A
Weather by CustomWeather, © 2017

See weather overviewHow to use our weather pages